sat.trackr.live / text

‹ back to catalog

STARLINK-32567

NORAD 61930 · 2024-207U

PAYLOAD ACTIVE UNKNOWN

§ Identity

Operator
Country
US
Launch date
2024-11-11
Launch site
AFETR
Launch vehicle
Mass (kg)
RCS (m²)

Purposes: comms

External: N2YO · Heavens-Above · Gunter

§ Orbital elements

Epoch: 2026-05-25T05:01:14.369376Z

Period
94.27 min
Inclination
42.9957°
Eccentricity
0.0000570
Mean motion
15.27592575 rev/d
Perigee alt
482.6 km
Apogee alt
483.4 km
Semi-major
6,861.1 km
B*
5.4665e-4
RAAN
206.2197°
Arg perigee
296.2736°
Mean anomaly
63.8057°
Rev number
8,705

§ Raw data

STARLINK-325671 61930U 24207U   26145.20919409  .00014817  00000+0  54665-3 0  99952 61930  42.9957 206.2197 0000570 296.2736  63.8057 15.27592575 87058

JSON: /api/v1/satellites/61930 · /tle

For live sub-satellite position, see the globe view (requires WebGL).

§ Visibility from observer

Set your observer location to see the next 7 days of passes ≥ 10°. The values pass through the URL so the page stays shareable.

No JS? Fill the form by hand. The geolocation button needs JavaScript.